Theta_e
322 324 322 324 325 326 326 326 326 326 326 324 324 324 324 326 326 322 313 319 324 331 328 321 319 317 316 312 314 310 298 294 296 299 302 304 304 307 309 309 310 317 315 319 326
320 322 323 323 324 325 326 326 326 326 326 325 324 323 325 326 319 313 323 331 331 331 320 315 312 315 308 308 311 305 297 298 301 304 304 308 303 305 304 304 308 315 323 325 326
319 319 320 322 323 323 324 325 325 326 326 325 325 323 324 323 309 306 323 328 334 329 323 321 318 313 306 306 306 306 300 304 305 308 310 309 308 309 301 301 305 310 319 322 320
317 317 318 319 321 322 323 324 324 324 326 325 324 323 322 317 285 308 326 327 328 324 320 316 313 306 303 300 305 300 306 306 308 308 307 307 310 307 304 302 308 309 323 322 320
316 316 316 317 318 320 321 323 323 324 324 324 324 323 316 302 302 314 326 327 323 320 314 312 309 307 302 302 301 299 302 306 307 307 305 307 307 307 307 311 310 317 323 321 322
314 315 315 316 316 317 319 321 323 323 323 324 324 323 308 294 310 310 320 323 320 316 312 313 310 309 304 302 299 300 301 302 306 306 305 303 303 305 306 309 310 316 319 320 320
313 313 314 315 315 316 316 318 321 322 322 323 323 317 306 299 306 307 310 320 320 316 311 313 313 307 305 300 304 303 298 299 300 302 303 304 299 302 307 309 309 309 308 316 320
311 312 312 314 315 315 315 316 319 320 322 322 323 314 301 312 313 309 307 309 320 319 314 314 314 308 305 305 302 297 296 290 298 302 303 301 294 301 306 304 305 306 305 306 309
311 311 311 311 312 314 314 316 317 318 320 321 315 308 300 316 307 309 308 304 317 316 316 316 311 304 303 297 292 291 286 290 294 300 300 299 293 300 305 304 302 302 303 303 305
309 310 310 310 311 312 313 314 314 314 314 314 312 302 303 301 306 307 306 305 313 312 309 307 304 297 296 295 286 287 288 290 289 295 297 296 295 299 301 302 302 302 302 302 303
308 309 309 309 310 311 310 307 300 299 304 298 300 301 301 307 308 305 304 302 308 306 298 302 297 291 295 298 294 293 289 289 291 297 293 292 294 297 300 299 300 301 300 301 302
308 308 308 309 309 310 307 299 299 302 294 303 303 304 306 307 299 301 305 298 301 296 298 298 292 296 297 298 296 291 290 288 292 295 293 292 292 296 296 298 298 300 300 301 302
307 307 307 308 309 306 300 299 306 305 292 295 301 301 301 305 298 299 301 300 299 296 296 292 293 298 296 295 294 293 290 289 289 293 293 291 291 293 296 297 299 299 301 301 302
306 306 307 307 302 300 297 303 306 305 285 288 294 298 302 303 297 304 302 301 298 294 296 294 297 296 295 293 295 289 296 293 291 289 284 291 283 289 291 294 297 298 298 299 300
306 306 306 307 298 295 298 304 305 301 273 288 292 303 301 297 298 298 302 300 295 294 294 291 293 293 292 293 297 290 296 294 291 288 286 287 283 286 291 291 293 296 298 299 300
305 305 305 302 300 298 302 304 301 281 272 284 292 292 293 296 296 299 297 302 300 294 295 293 296 296 295 296 297 296 292 291 290 290 283 287 284 285 288 291 293 295 297 299 300
305 305 303 301 294 301 302 296 280 275 285 283 287 291 290 290 292 293 291 290 289 286 286 291 291 294 297 292 295 293 288 274 281 281 279 285 284 287 291 293 294 295 296 297 298
304 304 302 300 300 301 297 285 273 280 281 289 289 290 287 289 290 291 289 286 292 290 286 284 282 290 295 294 290 291 290 281 270 273 278 283 282 287 294 297 298 299 299 298 297
303 299 297 299 300 300 288 276 276 280 285 286 287 284 285 289 289 289 288 287 290 292 284 284 284 290 293 294 295 289 287 290 279 277 274 280 284 291 294 294 294 294 295 297 296
295 294 293 299 300 294 283 278 280 286 287 288 282 285 281 285 286 287 286 290 289 294 292 287 281 288 292 293 294 292 293 285 284 274 273 278 280 282 288 290 293 293 293 293 293
294 287 294 300 298 287 277 277 279 287 287 285 284 283 283 283 286 285 285 290 292 292 294 289 284 282 289 287 288 289 286 286 285 282 275 273 278 288 290 291 292 292 293 293 294
288 280 295 298 283 283 278 278 286 284 288 286 287 286 284 286 285 284 285 288 294 293 289 291 286 278 284 291 294 293 289 289 282 278 279 279 279 291 293 293 293 293 293 296 295
285 285 295 293 277 276 276 280 285 283 285 285 284 288 288 286 282 287 288 292 294 292 290 292 286 278 281 285 289 288 290 290 288 284 280 278 281 292 293 292 294 295 294 296 297
285 278 285 287 284 278 274 280 279 286 285 286 285 287 286 283 288 285 285 290 293 294 296 295 287 284 279 282 287 285 288 290 288 283 282 282 284 287 289 291 292 294 294 294 295
286 281 283 278 279 280 281 281 281 281 286 286 283 284 282 280 283 284 287 290 292 295 294 292 285 286 285 285 287 287 287 288 287 288 283 285 285 289 290 291 293 292 292 292 292
282 281 284 276 282 281 282 280 281 282 284 283 281 283 284 277 284 282 287 289 289 291 290 293 284 286 283 285 286 284 287 288 289 289 288 287 285 291 291 291 292 292 292 291 292
286 287 284 282 281 280 280 280 280 283 284 286 284 284 283 284 288 290 289 289 291 290 289 288 285 283 280 284 284 279 284 287 288 290 289 285 290 291 289 291 292 291 291 291 291
Wind_Speed
15 13 12 12 14 16 14 13 13 12 11 9 7 6 6 5 5 1 7 6 5 1 5 6 6 7 4 4 3 3 4 2 3 4 4 3 3 4 3 3 3 4 4 4 11
15 15 14 13 12 15 16 14 13 13 12 10 8 6 5 3 2 7 6 10 10 2 1 1 3 7 3 2 3 4 4 8 4 1 4 5 1 5 2 1 2 3 4 4 10
15 14 15 15 13 13 15 15 14 13 13 11 10 7 6 2 3 10 16 24 15 8 4 1 1 1 1 2 2 4 5 4 2 2 4 5 4 5 1 1 3 6 6 5 4
14 14 14 15 15 15 14 15 16 15 14 13 11 9 6 3 8 2 6 22 20 7 6 2 1 3 3 5 3 2 6 3 4 1 3 4 3 5 1 2 5 6 12 9 9
13 12 13 13 14 15 15 14 15 17 16 14 13 11 5 3 8 4 7 6 14 9 9 7 4 5 7 4 2 4 3 5 6 8 2 3 6 5 6 8 3 4 10 12 11
14 13 12 12 13 13 15 15 15 16 17 16 15 14 3 11 7 13 5 7 9 12 7 8 8 5 5 5 5 3 3 5 5 8 4 3 6 3 4 4 6 7 9 9 12
16 15 14 13 13 13 13 14 14 14 17 18 17 10 10 12 4 3 2 2 7 9 8 7 3 5 5 2 5 5 4 5 4 3 4 4 5 9 9 6 8 8 8 9 13
18 16 16 15 14 14 13 13 13 12 14 18 17 9 11 10 17 12 4 5 6 4 5 6 5 3 3 2 5 4 4 2 4 7 5 5 14 6 10 6 10 10 8 8 10
18 17 17 16 15 13 13 11 10 10 12 14 13 9 8 7 8 9 8 3 7 3 6 4 6 6 2 4 3 2 3 7 7 7 3 8 4 5 9 9 9 9 9 8 8
20 18 18 17 16 14 12 9 8 8 6 1 8 10 6 15 5 5 8 8 5 8 3 5 4 5 5 9 12 8 7 6 7 5 8 12 18 14 11 8 12 11 10 8 8
22 21 20 18 18 16 10 3 3 5 11 8 4 2 7 6 6 14 7 8 4 4 10 8 11 24 28 18 8 10 5 10 4 6 2 8 15 13 16 13 15 12 9 9 9
23 22 21 19 18 18 11 9 11 0 6 18 14 11 3 5 9 6 13 10 11 19 7 8 27 18 9 10 13 7 14 9 4 4 7 9 17 13 9 15 10 12 9 9 6
24 23 21 20 20 15 13 19 7 4 5 7 19 16 5 5 7 16 20 13 18 21 21 16 11 10 12 13 14 18 18 8 4 2 4 2 17 10 6 6 6 5 7 6 9
25 24 22 21 15 8 14 15 8 6 8 12 16 13 12 7 8 8 15 21 8 26 20 15 18 20 13 16 18 20 15 7 7 5 8 6 13 6 4 9 7 7 7 9 9
24 24 24 25 5 12 10 9 7 4 14 18 16 8 19 12 12 11 10 6 17 12 10 16 12 15 18 23 18 11 10 14 7 6 2 10 3 5 4 8 8 8 9 10 10
26 26 23 15 7 9 11 10 9 14 12 11 19 20 22 25 12 10 11 9 3 8 16 18 4 17 13 12 17 6 6 4 4 6 12 19 6 17 12 9 8 7 9 9 12
26 24 18 10 17 8 10 8 16 17 9 9 18 23 32 23 31 13 17 27 12 13 15 16 15 3 9 8 8 8 7 1 7 10 17 10 8 25 4 9 12 12 12 12 11
25 25 19 13 7 15 7 11 20 15 6 6 14 23 31 27 25 22 18 17 22 13 10 17 13 22 8 14 9 19 18 7 10 7 6 5 12 15 7 13 15 14 16 7 9
22 12 10 12 12 10 11 17 10 11 11 6 20 21 25 22 12 26 27 26 20 23 12 16 18 7 5 5 18 9 15 11 6 2 4 5 8 8 9 10 7 9 6 8 5
7 8 14 13 14 10 11 20 7 6 4 12 22 17 20 30 21 27 27 25 18 24 9 6 6 6 23 5 12 13 10 7 8 7 6 4 5 7 2 2 6 3 7 5 3
5 6 9 15 12 9 11 13 4 7 17 9 22 13 21 24 24 17 19 15 29 28 19 6 5 4 16 18 16 9 8 5 4 6 6 4 8 9 12 8 7 5 4 4 5
5 6 8 14 11 3 9 8 5 6 8 8 7 16 15 22 26 24 23 15 29 29 30 13 3 4 19 22 20 18 21 17 8 6 3 3 8 3 7 10 7 6 4 4 6
6 4 8 13 11 5 3 8 5 12 10 9 7 10 2 18 15 20 18 22 27 24 23 18 6 5 4 2 0 23 14 16 7 4 9 9 11 6 5 8 4 6 2 1 3
5 6 5 5 7 12 7 11 12 11 6 5 2 4 7 7 13 17 16 12 16 28 26 22 5 13 15 17 13 20 27 20 20 11 18 13 18 8 5 7 2 5 4 5 5
5 5 5 11 11 9 14 11 16 7 8 5 4 1 6 6 8 4 17 12 13 28 26 18 16 10 7 5 18 22 26 24 20 26 16 20 15 15 8 4 7 8 6 6 5
6 5 2 4 13 17 14 14 13 3 9 8 6 9 5 6 7 11 5 15 17 20 25 17 6 16 12 1 8 13 18 20 23 24 18 10 13 6 7 7 6 6 6 5 5
3 3 7 8 11 12 11 15 16 5 4 8 11 6 11 13 8 10 6 11 8 14 22 18 13 10 18 8 5 1 21 19 17 16 19 15 28 8 5 7 7 7 6 6 6
Wind_Direction
261 249 248 258 250 246 231 224 220 213 215 227 229 240 261 285 306 224 244 233 217 231 322 313 342 345 349 315 316 85 73 252 266 23 306 336 11 351 324 97 61 19 136 249 154
261 259 253 247 253 249 245 231 220 214 213 212 216 232 250 280 244 240 224 230 218 214 11 86 311 342 355 302 306 103 132 213 180 104 327 331 51 322 82 27 32 29 3 86 136
253 255 257 258 247 247 244 239 228 214 208 205 202 202 228 225 305 243 198 219 222 178 174 148 271 301 304 22 249 198 190 224 190 68 1 333 338 321 47 287 210 215 180 167 159
262 256 257 259 258 254 247 238 233 221 211 202 196 186 195 179 227 243 203 211 213 168 155 193 209 139 191 229 234 220 228 219 288 111 22 294 271 329 239 227 298 252 171 166 177
256 264 261 261 258 260 255 249 236 227 213 205 191 171 137 214 242 286 325 239 177 168 182 175 170 160 185 211 250 220 271 278 263 276 222 271 270 244 254 278 288 97 163 188 190
259 250 250 248 250 257 260 252 245 231 218 207 194 172 171 230 223 259 350 119 155 172 169 163 200 192 184 227 161 186 229 276 296 285 300 251 267 211 230 238 293 163 203 207 202
254 254 247 240 244 249 255 258 259 237 223 212 198 177 226 223 228 28 52 233 165 176 171 187 222 195 194 232 226 244 287 301 240 250 261 355 285 231 258 271 271 252 231 216 221
247 251 242 243 237 241 247 251 247 254 226 219 202 191 238 200 241 263 306 273 185 174 139 171 213 279 192 252 5 176 120 199 241 200 237 122 259 269 271 248 261 262 277 247 226
244 241 239 238 239 237 239 249 247 256 252 231 216 187 233 161 195 224 190 235 164 153 197 167 154 194 174 143 350 339 158 192 264 204 182 184 268 254 238 229 245 261 266 262 262
241 237 233 232 230 231 234 233 236 245 246 255 272 168 241 198 156 168 154 184 177 159 134 175 185 179 190 179 202 191 196 221 188 228 202 238 252 261 270 255 244 241 244 261 267
238 234 230 227 226 220 217 182 161 234 211 190 174 243 133 167 134 202 156 148 165 165 184 182 190 211 205 204 193 187 201 209 210 233 202 237 259 250 256 248 249 249 252 249 254
234 232 228 220 219 221 212 208 204 254 233 221 238 226 110 175 176 209 154 164 180 197 145 167 217 214 147 196 202 201 212 215 258 210 168 265 265 254 239 255 231 237 238 249 269
229 226 222 221 216 216 217 226 229 52 252 211 214 226 202 164 200 204 179 180 189 194 197 196 227 158 176 193 198 219 218 184 174 198 250 325 283 261 236 241 258 222 222 228 231
228 221 215 217 219 206 219 219 210 91 242 202 191 222 212 184 224 218 204 176 179 202 195 222 225 186 185 201 194 217 214 161 186 156 240 152 266 240 200 246 242 239 241 245 252
226 216 214 204 163 188 202 167 164 176 235 176 184 174 177 200 127 220 189 200 192 169 168 208 169 201 197 207 181 223 168 192 174 193 94 242 270 271 184 251 253 265 256 249 253
221 215 212 213 195 209 182 167 162 217 232 183 163 171 165 193 189 167 189 209 168 172 206 214 174 182 203 194 194 137 83 131 142 183 235 237 176 267 236 247 248 229 238 242 249
215 211 208 190 209 158 167 184 208 222 145 164 175 170 183 186 200 178 192 199 186 175 189 217 226 257 166 143 179 171 139 197 213 215 237 151 175 244 242 245 251 267 250 242 244
217 214 211 204 170 168 164 205 236 213 188 166 176 183 186 179 199 194 192 205 200 211 171 193 203 216 180 200 179 196 201 189 196 201 233 157 223 238 234 245 250 240 258 264 257
213 204 195 199 168 167 197 222 214 218 165 205 164 189 196 194 164 188 198 203 203 194 185 200 219 204 187 145 166 195 207 200 97 101 80 210 279 292 250 268 299 261 247 254 207
188 191 199 172 162 177 213 232 222 201 286 189 186 187 190 192 187 194 194 199 194 205 205 206 194 196 193 141 214 179 155 176 205 190 227 241 264 234 283 245 344 125 171 203 99
152 198 167 157 159 202 220 221 224 230 199 240 211 197 191 189 200 198 191 179 190 193 214 195 140 232 157 202 179 169 202 196 167 171 186 193 247 204 230 213 162 148 136 36 40
160 200 170 148 192 180 202 195 203 216 166 248 289 194 189 191 196 207 210 200 191 186 201 195 168 167 199 209 204 196 209 198 200 222 213 130 254 224 211 138 144 131 94 21 37
163 151 177 160 194 168 224 216 216 228 188 212 253 207 162 188 192 203 206 202 187 190 186 185 200 147 101 35 324 211 205 204 194 85 195 193 248 152 134 134 106 116 99 88 55
151 170 163 200 188 187 185 242 211 202 174 168 284 176 127 169 214 205 198 197 193 199 191 179 163 216 208 206 180 197 209 201 201 207 221 211 229 264 212 148 163 151 139 81 66
177 204 197 168 182 168 196 208 178 162 194 135 226 238 161 151 178 219 224 188 186 196 196 203 205 197 235 259 181 199 201 200 202 218 212 231 229 223 258 176 171 160 168 163 140
150 158 181 145 174 181 179 186 226 134 151 165 153 212 189 163 175 175 206 192 194 194 198 195 212 198 207 297 169 194 202 197 207 221 222 223 254 168 187 129 154 149 132 96 62
122 280 139 141 164 176 190 198 206 244 232 182 178 165 207 211 193 182 193 280 246 186 194 186 185 180 206 155 93 244 205 194 207 212 208 216 235 104 187 189 152 147 138 103 73